Regional Weather Roundup
Issued by NWS Upton, NY

Home | Current Version | Previous Version | Text Only | Print | Product List | Glossary On
Versions: 1 2 3 4 5 6 7 8 9 10 11 12 13 14 15 16 17 18 19 20 21 22 23 24 25 26 27 28 29 30 31 32 33 34 35 36 37 38 39 40 41 42 43 44 45 46 47 48 49 50
000
ASUS41 KOKX 311704
RWROKX

REGIONAL WEATHER ROUNDUP
NATIONAL WEATHER SERVICE NEW YORK NY
100 PM EDT MON AUG 31 2015

NOTE: "FAIR" INDICATES FEW OR NO CLOUDS BELOW 12,000 FEET WITH NO
SIGNIFICANT WEATHER AND/OR OBSTRUCTIONS TO VISIBILITY.

NYZ071-072-176-178-NJZ106-104-311800-
NEW YORK CITY METRO AREA


CITY           SKY/WX    TMP DP  RH WIND       PRES   REMARKS
CENTRAL PARK   PTSUNNY   85  67  54 VRB6      30.05F
LAGUARDIA APRT PTSUNNY   85  65  51 SW9       30.01F
KENNEDY INTL   PTSUNNY   87  69  54 SW12      30.03F HX  91
NEWARK/LIBERTY CLOUDY    87  67  51 W8        30.02F HX  90
BRNX BOT. GARD   N/A     84  66  54 S2        30.04R
TETERBORO      PTSUNNY   87  65  47 SW8       30.00F
$$

NYZ177-179-078>081-311800-
LONG ISLAND NEW YORK

CITY           SKY/WX    TMP DP  RH WIND       PRES   REMARKS
FARMINGDALE    CLOUDY    87  64  46 W9        30.02F
ISLIP          CLOUDY    87  64  46 W9        30.00F
SHIRLEY        PTSUNNY   86  69  56 SW8G17    30.01F HX  90
WESTHAMPTON    PTSUNNY   84  69  60 SW10      30.02S
MONTAUK POINT    N/A     82  69  64 W8        30.00F
$$

NYZ052-065-067-311800-
HUDSON VALLEY

CITY           SKY/WX    TMP DP  RH WIND       PRES   REMARKS
WHITE PLAINS   MOSUNNY   87  65  47 W10       30.02F
NEWBURGH       PTSUNNY   79  72  78 W5        30.05S
MONTGOMERY     MOSUNNY   84  70  62 W8        30.02F
POUGHKEEPSIE   PTSUNNY   84  69  60 SW9       30.00F
ALBANY         MOSUNNY   85  66  53 W10       29.98F
$$

NJZ001-105-106-008-010-013-015-019>022-104-311800-
NEW JERSEY

CITY           SKY/WX    TMP DP  RH WIND       PRES   REMARKS
NEWARK/LIBERTY CLOUDY    87  67  51 W8        30.02F HX  90
TETERBORO      PTSUNNY   87  65  47 SW8       30.00F
CALDWELL       PTSUNNY   84  68  58 VRB7      30.03F
MORRISTOWN     PTSUNNY   88  70  55 SW10      30.03F HX  92
SOMERVILLE     CLOUDY    87  67  51 MISG      30.02F HX  90
SUSSEX         LGT RAIN  87  68  52 CALM      30.03F HX  90
ANDOVER          N/A     84  69  60 SW7       30.05F
TRENTON        CLOUDY    84  68  58 NW7       30.05F
MILLVILLE      CLOUDY    85  68  56 W9        30.07F
ATLANTIC CITY  CLOUDY    87  67  51 W8        30.06F HX  90
WRIGHTSTOWN    MOSUNNY   87  70  56 SW8       30.02F HX  92
TOMS RIVER     MOSUNNY   88  66  48 W5        30.05F HX  90
BELMAR         MOSUNNY   86  66  51 W8        30.04F
$$

PAZ047>061-062-071-311800-
EASTERN PENNSYLVANIA

CITY           SKY/WX    TMP DP  RH WIND       PRES   REMARKS
PHILADELPHIA   PTSUNNY   90  65  43 SW9       30.05F HX  92
ALLENTOWN      PTSUNNY   87  70  56 W7        30.05F HX  92
SCRANTON       LGT RAIN  81  69  67 W8        30.07F
$$

CTZ002-004>006-009-010-012-RIZ004-006-007-MAZ004-011-015-311800-
SOUTHERN NEW ENGLAND
 IN CT

CITY           SKY/WX    TMP DP  RH WIND       PRES   REMARKS
BRADLEY INTL   PTSUNNY   85  67  54 W10       29.97F
HARTFORD       PTSUNNY   84  65  52 SW9       29.97F
DANBURY        MOSUNNY   85  65  51 NW9       30.02F
WTRBRY/OXFORD  SUNNY     82  64  54 NW7G17    30.04F
BRIDGEPORT     PTSUNNY   82  70  66 SW14      29.99F
MERIDEN        PTSUNNY   88  64  44 W10       29.99F
NEW HAVEN      PTSUNNY   83  70  64 SW10G18   29.99F
CHESTER        NOT AVBL
GROTON         MOSUNNY   82  72  71 SW13      29.97F
WILLIMANTIC    PTSUNNY   83  65  54 W9        29.98F

 IN RI

CITY           SKY/WX    TMP DP  RH WIND       PRES   REMARKS
PROVIDENCE     PTSUNNY   85  65  51 W13       29.96F
BLOCK ISLAND   PTSUNNY   81  72  74 W13G20    29.99F
WESTERLY       PTSUNNY   82  69  64 SW13      29.98F

 IN MA

CITY           SKY/WX    TMP DP  RH WIND       PRES   REMARKS
BOSTON         MOSUNNY   88  64  44 SW13G18   29.92F
WORCESTER      MOSUNNY   80  63  55 W12G22    29.99F
WESTFIELD      PTSUNNY   87  63  44 W14       29.97F
PROVINCETOWN     N/A     82  64  54 SW9       29.94F
NANTUCKET      PTSUNNY   79  70  74 W16       29.97F
$$

ANZ330-335-338-340-345-350-353-355-311800-
COASTAL MARINE OBSERVATIONS


STATION/POSITION TIME  SKY/WX   TEMP    WIND        PRES    VSBY  WAVE
                                AIR SEA DIR/SP/G                  HT/PER
                 (UTC)          (F)     (DEG/KT/KT) (MB)    (MI)  (FT/S)
NY HARB ENTRANCE 1550            77 76  240/  6/  6 1016.9          2/10
4S FIRE IS       NOT AVBL
20S FIRE ISLAND  1550            75 74  250/ 10/ 12 1017.0          4/ 5
GREAT SOUTH BAY  NOT AVBL
23SW MTP         1650            74 72  260/ 14/ 16 1015.5          4/ 6
HUDSON CANYON    NOT AVBL
KINGS POINT      NOT AVBL
EXECUTION ROCKS  NOT AVBL
CENTRAL LI SOUND NOT AVBL
EASTERN LI SOUND NOT AVBL
ROBBINS REEF     NOT AVBL
$$


>>>>>>>>>>>>>>>>>>>>>>>>>>>> KEY <<<<<<<<<<<<<<<<<<<<<<<<<<<
>                                                          <
>     SKY/WX - SKY CONDITION/PRESENT WEATHER               <
>     TMP    - TEMPERATURE IN FAHRENHEIT                   <
>     DP     - DEWPOINT IN FAHRENHEIT                      <
>     RH     - RELATIVE HUMIDITY IN PERCENT                <
>     WIND   - DIRECTION AND SPEED IN MPH                  <
>     PRES   - MEAN SEA LEVEL PRESSURE IN INCHES OF HG     <
>     WCI    - WIND CHILL INDEX                            <
>     VSB    - VISIBILITY IN MILES                         <
>     HX     - HEAT INDEX                                  <
>     TC     - TEMPERATURE IN CELSIUS                      <
>     VRB    - VARIABLE WIND DIRECTION                     <
>                                                          <
>>>>>>>>>>>>>>>>>>>>>>>>>>>> KEY <<<<<<<<<<<<<<<<<<<<<<<<<<<




USA.gov is the U.S. government's official web portal to all federal, state and local government web resources and services.